Year,Month,Day,Hour,Minute,Value (Times are PST for temperature in C)
2015,05,16,00,00,15.00
2015,05,16,00,01,15.00
2015,05,16,00,02,15.00
2015,05,16,00,03,15.00
2015,05,16,00,04,15.00
2015,05,16,00,05,15.00
2015,05,16,00,06,14.90
2015,05,16,00,07,14.90
2015,05,16,00,08,14.90
2015,05,16,00,09,14.90
2015,05,16,00,10,14.90
2015,05,16,00,11,14.90
2015,05,16,00,12,14.80
2015,05,16,00,13,14.80
2015,05,16,00,14,14.80
2015,05,16,00,15,14.80
2015,05,16,00,16,14.80
2015,05,16,00,17,14.80
2015,05,16,00,18,14.80
2015,05,16,00,19,14.80
2015,05,16,00,20,14.80
2015,05,16,00,21,14.80
2015,05,16,00,22,14.70
2015,05,16,00,23,14.70
2015,05,16,00,24,14.70
2015,05,16,00,25,14.70
2015,05,16,00,26,14.70
2015,05,16,00,27,14.70
2015,05,16,00,28,14.70
2015,05,16,00,29,14.70
2015,05,16,00,30,14.70
2015,05,16,00,31,14.70
2015,05,16,00,32,14.70
2015,05,16,00,33,14.60
2015,05,16,00,34,14.60
2015,05,16,00,35,14.60
2015,05,16,00,36,14.60
2015,05,16,00,37,14.60
2015,05,16,00,38,14.60
2015,05,16,00,39,14.60
2015,05,16,00,40,14.60
2015,05,16,00,41,14.60
2015,05,16,00,42,14.60
2015,05,16,00,43,14.60
2015,05,16,00,44,14.60
2015,05,16,00,45,14.60
2015,05,16,00,46,14.60
2015,05,16,00,47,14.60
2015,05,16,00,48,14.60
2015,05,16,00,49,14.60
2015,05,16,00,50,14.60
2015,05,16,00,51,14.60
2015,05,16,00,52,14.60
2015,05,16,00,53,14.70
2015,05,16,00,54,14.70
2015,05,16,00,55,14.70
2015,05,16,00,56,14.70
2015,05,16,00,57,14.70
2015,05,16,00,58,14.80
2015,05,16,00,59,14.80
2015,05,16,01,00,14.80
2015,05,16,01,01,14.80
2015,05,16,01,02,14.90
2015,05,16,01,03,14.90
2015,05,16,01,04,15.00
2015,05,16,01,05,15.00
2015,05,16,01,06,15.00
2015,05,16,01,07,15.00
2015,05,16,01,08,15.00
2015,05,16,01,09,15.00
2015,05,16,01,10,15.00
2015,05,16,01,11,15.00
2015,05,16,01,12,15.00
2015,05,16,01,13,15.00
2015,05,16,01,14,15.00
2015,05,16,01,15,15.00
2015,05,16,01,16,15.00
2015,05,16,01,17,15.00
2015,05,16,01,18,15.00
2015,05,16,01,19,15.00
2015,05,16,01,20,15.00
2015,05,16,01,21,15.00
2015,05,16,01,22,15.00
2015,05,16,01,23,15.00
2015,05,16,01,24,15.00
2015,05,16,01,25,15.00
2015,05,16,01,26,15.00
2015,05,16,01,27,15.00
2015,05,16,01,28,15.10
2015,05,16,01,29,15.10
2015,05,16,01,30,15.10
2015,05,16,01,31,15.10
2015,05,16,01,32,15.10
2015,05,16,01,33,15.10
2015,05,16,01,34,15.10
2015,05,16,01,35,15.10
2015,05,16,01,36,15.10
2015,05,16,01,37,15.10
2015,05,16,01,38,15.10
2015,05,16,01,39,15.10
2015,05,16,01,40,15.10
2015,05,16,01,41,15.10
2015,05,16,01,42,15.10
2015,05,16,01,43,15.10
2015,05,16,01,44,15.10
2015,05,16,01,45,15.10
2015,05,16,01,46,15.10
2015,05,16,01,47,15.10
2015,05,16,01,48,15.10
2015,05,16,01,49,15.10
2015,05,16,01,50,15.10
2015,05,16,01,51,15.10
2015,05,16,01,52,15.10
2015,05,16,01,53,15.10
2015,05,16,01,54,15.10
2015,05,16,01,55,15.10
2015,05,16,01,56,15.10
2015,05,16,01,57,15.10
2015,05,16,01,58,15.10
2015,05,16,01,59,15.10
2015,05,16,02,00,15.10
2015,05,16,02,01,15.10
2015,05,16,02,02,15.10
2015,05,16,02,03,15.10
2015,05,16,02,04,15.10
2015,05,16,02,05,15.10
2015,05,16,02,06,15.10
2015,05,16,02,07,15.10
2015,05,16,02,08,15.10
2015,05,16,02,09,15.10
2015,05,16,02,10,15.10
2015,05,16,02,11,15.10
2015,05,16,02,12,15.10
2015,05,16,02,13,15.10
2015,05,16,02,14,15.10
2015,05,16,02,15,15.10
2015,05,16,02,16,15.10
2015,05,16,02,17,15.10
2015,05,16,02,18,15.00
2015,05,16,02,19,15.00
2015,05,16,02,20,15.00
2015,05,16,02,21,15.00
2015,05,16,02,22,15.00
2015,05,16,02,23,15.00
2015,05,16,02,24,15.00
2015,05,16,02,25,15.00
2015,05,16,02,26,15.00
2015,05,16,02,27,15.00
2015,05,16,02,28,15.00
2015,05,16,02,29,15.00
2015,05,16,02,30,15.00
2015,05,16,02,31,15.00
2015,05,16,02,32,15.00
2015,05,16,02,33,15.00
2015,05,16,02,34,15.00
2015,05,16,02,35,15.00
2015,05,16,02,36,15.00
2015,05,16,02,37,15.00
2015,05,16,02,38,15.00
2015,05,16,02,39,15.00
2015,05,16,02,40,15.00
2015,05,16,02,41,15.00
2015,05,16,02,42,15.00
2015,05,16,02,43,15.00
2015,05,16,02,44,15.00
2015,05,16,02,45,15.00
2015,05,16,02,46,15.00
2015,05,16,02,47,15.00
2015,05,16,02,48,15.00
2015,05,16,02,49,15.00
2015,05,16,02,50,15.00
2015,05,16,02,51,15.00
2015,05,16,02,52,15.00
2015,05,16,02,53,15.00
2015,05,16,02,54,15.00
2015,05,16,02,55,15.00
2015,05,16,02,56,15.00
2015,05,16,02,57,15.00
2015,05,16,02,58,15.00
2015,05,16,02,59,15.00
2015,05,16,03,00,15.00
2015,05,16,03,01,15.00
2015,05,16,03,02,14.90
2015,05,16,03,03,14.90
2015,05,16,03,04,14.90
2015,05,16,03,05,14.90
2015,05,16,03,06,14.90
2015,05,16,03,07,14.80
2015,05,16,03,08,14.80
2015,05,16,03,09,14.80
2015,05,16,03,10,14.80
2015,05,16,03,11,14.80
2015,05,16,03,12,14.80
2015,05,16,03,13,14.80
2015,05,16,03,14,14.80
2015,05,16,03,15,14.70
2015,05,16,03,16,14.70
2015,05,16,03,17,14.70
2015,05,16,03,18,14.70
2015,05,16,03,19,14.70
2015,05,16,03,20,14.70
2015,05,16,03,21,14.70
2015,05,16,03,22,14.70
2015,05,16,03,23,14.70
2015,05,16,03,24,14.70
2015,05,16,03,25,14.70
2015,05,16,03,26,14.70
2015,05,16,03,27,14.70
2015,05,16,03,28,14.60
2015,05,16,03,29,14.60
2015,05,16,03,30,14.60
2015,05,16,03,31,14.60
2015,05,16,03,32,14.60
2015,05,16,03,33,14.60
2015,05,16,03,34,14.60
2015,05,16,03,35,14.60
2015,05,16,03,36,14.60
2015,05,16,03,37,14.60
2015,05,16,03,38,14.60
2015,05,16,03,39,14.50
2015,05,16,03,40,14.50
2015,05,16,03,41,14.50
2015,05,16,03,42,14.50
2015,05,16,03,43,14.50
2015,05,16,03,44,14.50
2015,05,16,03,45,14.50
2015,05,16,03,46,14.50
2015,05,16,03,47,14.50
2015,05,16,03,48,14.50
2015,05,16,03,49,14.50
2015,05,16,03,50,14.40
2015,05,16,03,51,14.40
2015,05,16,03,52,14.40
2015,05,16,03,53,14.40
2015,05,16,03,54,14.40
2015,05,16,03,55,14.40
2015,05,16,03,56,14.40
2015,05,16,03,57,14.40
2015,05,16,03,58,14.40
2015,05,16,03,59,14.40
2015,05,16,04,00,14.40
2015,05,16,04,01,14.40
2015,05,16,04,02,14.40
2015,05,16,04,03,14.40
2015,05,16,04,04,14.40
2015,05,16,04,05,14.40
2015,05,16,04,06,14.40
2015,05,16,04,07,14.40
2015,05,16,04,08,14.40
2015,05,16,04,09,14.40
2015,05,16,04,10,14.40
2015,05,16,04,11,14.40
2015,05,16,04,12,14.40
2015,05,16,04,13,14.30
2015,05,16,04,14,14.30
2015,05,16,04,15,14.30
2015,05,16,04,16,14.30
2015,05,16,04,17,14.30
2015,05,16,04,18,14.30
2015,05,16,04,19,14.30
2015,05,16,04,20,14.30
2015,05,16,04,21,14.30
2015,05,16,04,22,14.30
2015,05,16,04,23,14.30
2015,05,16,04,24,14.30
2015,05,16,04,25,14.30
2015,05,16,04,26,14.30
2015,05,16,04,27,14.30
2015,05,16,04,28,14.30
2015,05,16,04,29,14.30
2015,05,16,04,30,14.30
2015,05,16,04,31,14.30
2015,05,16,04,32,14.30
2015,05,16,04,33,14.30
2015,05,16,04,34,14.30
2015,05,16,04,35,14.30
2015,05,16,04,36,14.30
2015,05,16,04,37,14.30
2015,05,16,04,38,14.30
2015,05,16,04,39,14.30
2015,05,16,04,40,14.20
2015,05,16,04,41,14.20
2015,05,16,04,42,14.20
2015,05,16,04,43,14.20
2015,05,16,04,44,14.20
2015,05,16,04,45,14.20
2015,05,16,04,46,14.20
2015,05,16,04,47,14.20
2015,05,16,04,48,14.20
2015,05,16,04,49,14.20
2015,05,16,04,50,14.20
2015,05,16,04,51,14.20
2015,05,16,04,52,14.20
2015,05,16,04,53,14.10
2015,05,16,04,54,14.10
2015,05,16,04,55,14.10
2015,05,16,04,56,14.10
2015,05,16,04,57,14.10
2015,05,16,04,58,14.10
2015,05,16,04,59,14.10
2015,05,16,05,00,14.10
2015,05,16,05,01,14.10
2015,05,16,05,02,14.10
2015,05,16,05,03,14.10
2015,05,16,05,04,14.10
2015,05,16,05,05,14.10
2015,05,16,05,06,14.10
2015,05,16,05,07,14.10
2015,05,16,05,08,14.10
2015,05,16,05,09,14.10
2015,05,16,05,10,14.10
2015,05,16,05,11,14.10
2015,05,16,05,12,14.10
2015,05,16,05,13,14.10
2015,05,16,05,14,14.10
2015,05,16,05,15,14.00
2015,05,16,05,16,14.00
2015,05,16,05,17,14.00
2015,05,16,05,18,14.00
2015,05,16,05,19,14.00
2015,05,16,05,20,14.00
2015,05,16,05,21,14.00
2015,05,16,05,22,14.00
2015,05,16,05,23,14.00
2015,05,16,05,24,14.00
2015,05,16,05,25,14.00
2015,05,16,05,26,14.00
2015,05,16,05,27,14.00
2015,05,16,05,28,14.00
2015,05,16,05,29,14.00
2015,05,16,05,30,14.00
2015,05,16,05,31,14.00
2015,05,16,05,32,14.00
2015,05,16,05,33,14.00
2015,05,16,05,34,14.00
2015,05,16,05,35,14.00
2015,05,16,05,36,14.00
2015,05,16,05,37,14.00
2015,05,16,05,38,14.00
2015,05,16,05,39,14.00
2015,05,16,05,40,14.00
2015,05,16,05,41,14.00
2015,05,16,05,42,14.00
2015,05,16,05,43,14.00
2015,05,16,05,44,14.00
2015,05,16,05,45,14.00
2015,05,16,05,46,14.00
2015,05,16,05,47,13.90
2015,05,16,05,48,13.90
2015,05,16,05,49,13.90
2015,05,16,05,50,13.90
2015,05,16,05,51,13.90
2015,05,16,05,52,13.90
2015,05,16,05,53,13.90
2015,05,16,05,54,13.90
2015,05,16,05,55,13.90
2015,05,16,05,56,13.90
2015,05,16,05,57,13.90
2015,05,16,05,58,13.90
2015,05,16,05,59,13.90
2015,05,16,06,00,13.90
2015,05,16,06,01,13.90
2015,05,16,06,02,13.90
2015,05,16,06,03,13.90
2015,05,16,06,04,13.90
2015,05,16,06,05,13.90
2015,05,16,06,06,13.90
2015,05,16,06,07,13.90
2015,05,16,06,08,13.90
2015,05,16,06,09,13.90
2015,05,16,06,10,13.90
2015,05,16,06,11,13.90
2015,05,16,06,12,13.90
2015,05,16,06,13,13.90
2015,05,16,06,14,13.90
2015,05,16,06,15,13.90
2015,05,16,06,16,13.90
2015,05,16,06,17,13.90
2015,05,16,06,18,13.90
2015,05,16,06,19,13.90
2015,05,16,06,20,13.90
2015,05,16,06,21,13.90
2015,05,16,06,22,13.90
2015,05,16,06,23,13.90
2015,05,16,06,24,13.90
2015,05,16,06,25,13.90
2015,05,16,06,26,13.90
2015,05,16,06,27,13.90
2015,05,16,06,28,13.90
2015,05,16,06,29,13.90
2015,05,16,06,30,13.90
2015,05,16,06,31,13.90
2015,05,16,06,32,13.90
2015,05,16,06,33,13.90
2015,05,16,06,34,13.90
2015,05,16,06,35,13.90
2015,05,16,06,36,13.90
2015,05,16,06,37,13.90
2015,05,16,06,38,13.80
2015,05,16,06,39,13.80
2015,05,16,06,40,13.80
2015,05,16,06,41,13.80
2015,05,16,06,42,13.80
2015,05,16,06,43,13.80
2015,05,16,06,44,13.80
2015,05,16,06,45,13.80
2015,05,16,06,46,13.80
2015,05,16,06,47,13.80
2015,05,16,06,48,13.80
2015,05,16,06,49,13.80
2015,05,16,06,50,13.80
2015,05,16,06,51,13.80
2015,05,16,06,52,13.80
2015,05,16,06,53,13.80
2015,05,16,06,54,13.80
2015,05,16,06,55,13.80
2015,05,16,06,56,13.80
2015,05,16,06,57,13.80
2015,05,16,06,58,13.90
2015,05,16,06,59,13.90
2015,05,16,07,00,13.90
2015,05,16,07,01,13.90
2015,05,16,07,02,13.90
2015,05,16,07,03,13.90
2015,05,16,07,04,13.90
2015,05,16,07,05,13.90
2015,05,16,07,06,13.90
2015,05,16,07,07,13.90
2015,05,16,07,08,14.00
2015,05,16,07,09,14.00
2015,05,16,07,10,14.10
2015,05,16,07,11,14.10
2015,05,16,07,12,14.10
2015,05,16,07,13,14.10
2015,05,16,07,14,14.20
2015,05,16,07,15,14.20
2015,05,16,07,16,14.20
2015,05,16,07,17,14.20
2015,05,16,07,18,14.20
2015,05,16,07,19,14.20
2015,05,16,07,20,14.20
2015,05,16,07,21,14.20
2015,05,16,07,22,14.20
2015,05,16,07,23,14.20
2015,05,16,07,24,14.20
2015,05,16,07,25,14.30
2015,05,16,07,26,14.30
2015,05,16,07,27,14.30
2015,05,16,07,28,14.30
2015,05,16,07,29,14.30
2015,05,16,07,30,14.30
2015,05,16,07,31,14.30
2015,05,16,07,32,14.30
2015,05,16,07,33,14.30
2015,05,16,07,34,14.30
2015,05,16,07,35,14.30
2015,05,16,07,36,14.30
2015,05,16,07,37,14.40
2015,05,16,07,38,14.40
2015,05,16,07,39,14.40
2015,05,16,07,40,14.50
2015,05,16,07,41,14.50
2015,05,16,07,42,14.50
2015,05,16,07,43,14.60
2015,05,16,07,44,14.60
2015,05,16,07,45,14.60
2015,05,16,07,46,14.70
2015,05,16,07,47,14.70
2015,05,16,07,48,14.70
2015,05,16,07,49,14.70
2015,05,16,07,50,14.70
2015,05,16,07,51,14.70
2015,05,16,07,52,14.80
2015,05,16,07,53,14.80
2015,05,16,07,54,14.70
2015,05,16,07,55,14.70
2015,05,16,07,56,14.70
2015,05,16,07,57,14.70
2015,05,16,07,58,14.60
2015,05,16,07,59,14.60
2015,05,16,08,00,14.60
2015,05,16,08,01,14.60
2015,05,16,08,02,14.60
2015,05,16,08,03,14.60
2015,05,16,08,04,14.50
2015,05,16,08,05,14.50
2015,05,16,08,06,14.50
2015,05,16,08,07,14.40
2015,05,16,08,08,14.40
2015,05,16,08,09,14.30
2015,05,16,08,10,14.30
2015,05,16,08,11,14.30
2015,05,16,08,12,14.30
2015,05,16,08,13,14.20
2015,05,16,08,14,14.20
2015,05,16,08,15,14.20
2015,05,16,08,16,14.20
2015,05,16,08,17,14.20
2015,05,16,08,18,14.20
2015,05,16,08,19,14.20
2015,05,16,08,20,14.20
2015,05,16,08,21,14.20
2015,05,16,08,22,14.20
2015,05,16,08,23,14.20
2015,05,16,08,24,14.20
2015,05,16,08,25,14.10
2015,05,16,08,26,14.10
2015,05,16,08,27,14.10
2015,05,16,08,28,14.10
2015,05,16,08,29,14.10
2015,05,16,08,30,14.10
2015,05,16,08,31,14.10
2015,05,16,08,32,14.10
2015,05,16,08,33,14.00
2015,05,16,08,34,14.00
2015,05,16,08,35,14.00
2015,05,16,08,36,14.00
2015,05,16,08,37,14.00
2015,05,16,08,38,14.10
2015,05,16,08,39,14.10
2015,05,16,08,40,14.10
2015,05,16,08,41,14.10
2015,05,16,08,42,14.10
2015,05,16,08,43,14.10
2015,05,16,08,44,14.10
2015,05,16,08,45,14.10
2015,05,16,08,46,14.00
2015,05,16,08,47,14.00
2015,05,16,08,48,14.10
2015,05,16,08,49,14.10
2015,05,16,08,50,14.10
2015,05,16,08,51,14.10
2015,05,16,08,52,14.10
2015,05,16,08,53,14.10
2015,05,16,08,54,14.10
2015,05,16,08,55,14.10
2015,05,16,08,56,14.00
2015,05,16,08,57,14.00
2015,05,16,08,58,14.00
2015,05,16,08,59,13.90
2015,05,16,09,00,13.90
2015,05,16,09,01,13.90
2015,05,16,09,02,13.90
2015,05,16,09,03,13.90
2015,05,16,09,04,13.90
2015,05,16,09,05,13.90
2015,05,16,09,06,13.90
2015,05,16,09,07,13.90
2015,05,16,09,08,14.00
2015,05,16,09,09,14.00
2015,05,16,09,10,14.10
2015,05,16,09,11,14.10
2015,05,16,09,12,14.20
2015,05,16,09,13,14.20
2015,05,16,09,14,14.30
2015,05,16,09,15,14.30
2015,05,16,09,16,14.30
2015,05,16,09,17,14.40
2015,05,16,09,18,14.40
2015,05,16,09,19,14.50
2015,05,16,09,20,14.50
2015,05,16,09,21,14.50
2015,05,16,09,22,14.40
2015,05,16,09,23,14.40
2015,05,16,09,24,14.40
2015,05,16,09,25,14.40
2015,05,16,09,26,14.40
2015,05,16,09,27,14.40
2015,05,16,09,28,14.40
2015,05,16,09,29,14.40
2015,05,16,09,30,14.30
2015,05,16,09,31,14.30
2015,05,16,09,32,14.30
2015,05,16,09,33,14.30
2015,05,16,09,34,14.30
2015,05,16,09,35,14.30
2015,05,16,09,36,14.30
2015,05,16,09,37,14.30
2015,05,16,09,38,14.30
2015,05,16,09,39,14.30
2015,05,16,09,40,14.30
2015,05,16,09,41,14.30
2015,05,16,09,42,14.30
2015,05,16,09,43,14.30
2015,05,16,09,44,14.40
2015,05,16,09,45,14.40
2015,05,16,09,46,14.40
2015,05,16,09,47,14.50
2015,05,16,09,48,14.50
2015,05,16,09,49,14.50
2015,05,16,09,50,14.50
2015,05,16,09,51,14.50
2015,05,16,09,52,14.50
2015,05,16,09,53,14.50
2015,05,16,09,54,14.60
2015,05,16,09,55,14.60
2015,05,16,09,56,14.60
2015,05,16,09,57,14.60
2015,05,16,09,58,14.60
2015,05,16,09,59,14.50
2015,05,16,10,00,14.50
2015,05,16,10,01,14.50
2015,05,16,10,02,14.50
2015,05,16,10,03,14.50
2015,05,16,10,04,14.50
2015,05,16,10,05,14.50
2015,05,16,10,06,14.50
2015,05,16,10,07,14.60
2015,05,16,10,08,14.60
2015,05,16,10,09,14.70
2015,05,16,10,10,14.70
2015,05,16,10,11,14.80
2015,05,16,10,12,14.90
2015,05,16,10,13,15.00
2015,05,16,10,14,15.00
2015,05,16,10,15,15.00
2015,05,16,10,16,15.00
2015,05,16,10,17,15.00
2015,05,16,10,18,15.00
2015,05,16,10,19,15.00
2015,05,16,10,20,15.00
2015,05,16,10,21,15.00
2015,05,16,10,22,15.00
2015,05,16,10,23,15.00
2015,05,16,10,24,14.90
2015,05,16,10,25,14.90
2015,05,16,10,26,14.80
2015,05,16,10,27,14.80
2015,05,16,10,28,14.80
2015,05,16,10,29,14.90
2015,05,16,10,30,14.90
2015,05,16,10,31,14.90
2015,05,16,10,32,14.80
2015,05,16,10,33,14.80
2015,05,16,10,34,14.80
2015,05,16,10,35,14.90
2015,05,16,10,36,14.90
2015,05,16,10,37,15.00
2015,05,16,10,38,15.00
2015,05,16,10,39,15.00
2015,05,16,10,40,15.00
2015,05,16,10,41,15.00
2015,05,16,10,42,15.00
2015,05,16,10,43,14.90
2015,05,16,10,44,15.00
2015,05,16,10,45,15.00
2015,05,16,10,46,15.00
2015,05,16,10,47,15.00
2015,05,16,10,48,15.00
2015,05,16,10,49,15.00
2015,05,16,10,50,15.00
2015,05,16,10,51,15.00
2015,05,16,10,52,15.00
2015,05,16,10,53,15.00
2015,05,16,10,54,15.00
2015,05,16,10,55,15.00
2015,05,16,10,56,15.10
2015,05,16,10,57,15.10
2015,05,16,10,58,15.00
2015,05,16,10,59,15.00
2015,05,16,11,00,15.00
2015,05,16,11,01,15.00
2015,05,16,11,02,15.00
2015,05,16,11,03,15.10
2015,05,16,11,04,15.10
2015,05,16,11,05,15.20
2015,05,16,11,06,15.20
2015,05,16,11,07,15.20
2015,05,16,11,08,15.10
2015,05,16,11,09,15.10
2015,05,16,11,10,15.00
2015,05,16,11,11,15.00
2015,05,16,11,12,15.00
2015,05,16,11,13,15.10
2015,05,16,11,14,15.10
2015,05,16,11,15,15.20
2015,05,16,11,16,15.20
2015,05,16,11,17,15.10
2015,05,16,11,18,15.00
2015,05,16,11,19,15.00
2015,05,16,11,20,15.00
2015,05,16,11,21,15.00
2015,05,16,11,22,15.00
2015,05,16,11,23,15.00
2015,05,16,11,24,15.00
2015,05,16,11,25,15.00
2015,05,16,11,26,15.00
2015,05,16,11,27,15.00
2015,05,16,11,28,15.10
2015,05,16,11,29,15.10
2015,05,16,11,30,15.20
2015,05,16,11,31,15.30
2015,05,16,11,32,15.30
2015,05,16,11,33,15.30
2015,05,16,11,34,15.30
2015,05,16,11,35,15.40
2015,05,16,11,36,15.40
2015,05,16,11,37,15.40
2015,05,16,11,38,15.50
2015,05,16,11,39,15.50
2015,05,16,11,40,15.60
2015,05,16,11,41,15.60
2015,05,16,11,42,15.60
2015,05,16,11,43,15.60
2015,05,16,11,44,15.60
2015,05,16,11,45,15.60
2015,05,16,11,46,15.60
2015,05,16,11,47,15.60
2015,05,16,11,48,15.60
2015,05,16,11,49,15.60
2015,05,16,11,50,15.70
2015,05,16,11,51,15.70
2015,05,16,11,52,15.70
2015,05,16,11,53,15.80
2015,05,16,11,54,15.90
2015,05,16,11,55,16.10
2015,05,16,11,56,16.10
2015,05,16,11,57,16.20
2015,05,16,11,58,16.30
2015,05,16,11,59,16.30
2015,05,16,12,00,16.30
2015,05,16,12,01,16.20
2015,05,16,12,02,16.20
2015,05,16,12,03,16.20
2015,05,16,12,04,16.10
2015,05,16,12,05,16.10
2015,05,16,12,06,16.10
2015,05,16,12,07,16.10
2015,05,16,12,08,16.10
2015,05,16,12,09,16.10
2015,05,16,12,10,16.00
2015,05,16,12,11,16.00
2015,05,16,12,12,15.90
2015,05,16,12,13,15.90
2015,05,16,12,14,15.90
2015,05,16,12,15,15.80
2015,05,16,12,16,15.80
2015,05,16,12,17,15.80
2015,05,16,12,18,15.80
2015,05,16,12,19,15.90
2015,05,16,12,20,16.00
2015,05,16,12,21,16.00
2015,05,16,12,22,16.00
2015,05,16,12,23,16.10
2015,05,16,12,24,16.10
2015,05,16,12,25,16.00
2015,05,16,12,26,16.00
2015,05,16,12,27,15.90
2015,05,16,12,28,15.80
2015,05,16,12,29,15.80
2015,05,16,12,30,15.80
2015,05,16,12,31,15.80
2015,05,16,12,32,15.80
2015,05,16,12,33,15.90
2015,05,16,12,34,16.00
2015,05,16,12,35,16.00
2015,05,16,12,36,16.10
2015,05,16,12,37,16.10
2015,05,16,12,38,16.10
2015,05,16,12,39,16.20
2015,05,16,12,40,16.20
2015,05,16,12,41,16.30
2015,05,16,12,42,16.30
2015,05,16,12,43,16.30
2015,05,16,12,44,16.40
2015,05,16,12,45,16.50
2015,05,16,12,46,16.50
2015,05,16,12,47,16.50
2015,05,16,12,48,16.60
2015,05,16,12,49,16.60
2015,05,16,12,50,16.70
2015,05,16,12,51,16.80
2015,05,16,12,52,16.90
2015,05,16,12,53,17.00
2015,05,16,12,54,17.10
2015,05,16,12,55,17.20
2015,05,16,12,56,17.20
2015,05,16,12,57,17.30
2015,05,16,12,58,17.30
2015,05,16,12,59,17.30
2015,05,16,13,00,17.30
2015,05,16,13,01,17.30
2015,05,16,13,02,17.40
2015,05,16,13,03,17.40
2015,05,16,13,04,17.40
2015,05,16,13,05,17.40
2015,05,16,13,06,17.30
2015,05,16,13,07,17.30
2015,05,16,13,08,17.30
2015,05,16,13,09,17.30
2015,05,16,13,10,17.30
2015,05,16,13,11,17.30
2015,05,16,13,12,17.40
2015,05,16,13,13,17.40
2015,05,16,13,14,17.40
2015,05,16,13,15,17.50
2015,05,16,13,16,17.60
2015,05,16,13,17,17.60
2015,05,16,13,18,17.70
2015,05,16,13,19,17.70
2015,05,16,13,20,17.80
2015,05,16,13,21,17.80
2015,05,16,13,22,17.80
2015,05,16,13,23,17.70
2015,05,16,13,24,17.70
2015,05,16,13,25,17.80
2015,05,16,13,26,17.80
2015,05,16,13,27,17.80
2015,05,16,13,28,17.90
2015,05,16,13,29,17.90
2015,05,16,13,30,18.00
2015,05,16,13,31,18.10
2015,05,16,13,32,18.20
2015,05,16,13,33,18.30
2015,05,16,13,34,18.40
2015,05,16,13,35,18.50
2015,05,16,13,36,18.50
2015,05,16,13,37,18.50
2015,05,16,13,38,18.50
2015,05,16,13,39,18.40
2015,05,16,13,40,18.40
2015,05,16,13,41,18.30
2015,05,16,13,42,18.30
2015,05,16,13,43,18.30
2015,05,16,13,44,18.30
2015,05,16,13,45,18.20
2015,05,16,13,46,18.20
2015,05,16,13,47,18.20
2015,05,16,13,48,18.20
2015,05,16,13,49,18.20
2015,05,16,13,50,18.20
2015,05,16,13,51,18.20
2015,05,16,13,52,18.30
2015,05,16,13,53,18.30
2015,05,16,13,54,18.30
2015,05,16,13,55,18.30
2015,05,16,13,56,18.20
2015,05,16,13,57,18.30
2015,05,16,13,58,18.30
2015,05,16,13,59,18.30
2015,05,16,14,00,18.40
2015,05,16,14,01,18.40
2015,05,16,14,02,18.50
2015,05,16,14,03,18.60
2015,05,16,14,04,18.70
2015,05,16,14,05,18.80
2015,05,16,14,06,18.90
2015,05,16,14,07,19.00
2015,05,16,14,08,19.00
2015,05,16,14,09,19.10
2015,05,16,14,10,19.10
2015,05,16,14,11,19.10
2015,05,16,14,12,19.10
2015,05,16,14,13,19.10
2015,05,16,14,14,19.10
2015,05,16,14,15,19.10
2015,05,16,14,16,19.20
2015,05,16,14,17,19.20
2015,05,16,14,18,19.30
2015,05,16,14,19,19.40
2015,05,16,14,20,19.50
2015,05,16,14,21,19.50
2015,05,16,14,22,19.50
2015,05,16,14,23,19.50
2015,05,16,14,24,19.50
2015,05,16,14,25,19.50
2015,05,16,14,26,19.50
2015,05,16,14,27,19.50
2015,05,16,14,28,19.50
2015,05,16,14,29,19.50
2015,05,16,14,30,19.50
2015,05,16,14,31,19.50
2015,05,16,14,32,19.40
2015,05,16,14,33,19.30
2015,05,16,14,34,19.30
2015,05,16,14,35,19.20
2015,05,16,14,36,19.20
2015,05,16,14,37,19.20
2015,05,16,14,38,19.10
2015,05,16,14,39,19.10
2015,05,16,14,40,19.00
2015,05,16,14,41,19.10
2015,05,16,14,42,19.00
2015,05,16,14,43,19.10
2015,05,16,14,44,19.20
2015,05,16,14,45,19.40
2015,05,16,14,46,19.50
2015,05,16,14,47,19.60
2015,05,16,14,48,19.60
2015,05,16,14,49,19.70
2015,05,16,14,50,19.70
2015,05,16,14,51,19.70
2015,05,16,14,52,19.70
2015,05,16,14,53,19.80
2015,05,16,14,54,19.80
2015,05,16,14,55,19.80
2015,05,16,14,56,19.80
2015,05,16,14,57,19.80
2015,05,16,14,58,19.80
2015,05,16,14,59,19.80
2015,05,16,15,00,19.90
2015,05,16,15,01,20.00
2015,05,16,15,02,20.10
2015,05,16,15,03,20.30
2015,05,16,15,04,20.40
2015,05,16,15,05,20.40
2015,05,16,15,06,20.50
2015,05,16,15,07,20.40
2015,05,16,15,08,20.30
2015,05,16,15,09,20.20
2015,05,16,15,10,20.10
2015,05,16,15,11,20.10
2015,05,16,15,12,20.10
2015,05,16,15,13,20.10
2015,05,16,15,14,20.10
2015,05,16,15,15,20.20
2015,05,16,15,16,20.20
2015,05,16,15,17,20.20
2015,05,16,15,18,20.10
2015,05,16,15,19,20.10
2015,05,16,15,20,20.10
2015,05,16,15,21,20.10
2015,05,16,15,22,20.10
2015,05,16,15,23,20.20
2015,05,16,15,24,20.20
2015,05,16,15,25,20.20
2015,05,16,15,26,20.20
2015,05,16,15,27,20.10
2015,05,16,15,28,20.20
2015,05,16,15,29,20.20
2015,05,16,15,30,20.20
2015,05,16,15,31,20.30
2015,05,16,15,32,20.30
2015,05,16,15,33,20.30
2015,05,16,15,34,20.20
2015,05,16,15,35,20.20
2015,05,16,15,36,20.20
2015,05,16,15,37,20.20
2015,05,16,15,38,20.20
2015,05,16,15,39,20.10
2015,05,16,15,40,20.00
2015,05,16,15,41,19.90
2015,05,16,15,42,19.80
2015,05,16,15,43,19.80
2015,05,16,15,44,19.80
2015,05,16,15,45,19.80
2015,05,16,15,46,19.70
2015,05,16,15,47,19.70
2015,05,16,15,48,19.70
2015,05,16,15,49,19.60
2015,05,16,15,50,19.60
2015,05,16,15,51,19.60
2015,05,16,15,52,19.40
2015,05,16,15,53,19.40
2015,05,16,15,54,19.20
2015,05,16,15,55,19.20
2015,05,16,15,56,19.20
2015,05,16,15,57,19.20
2015,05,16,15,58,19.20
2015,05,16,15,59,19.20
2015,05,16,16,00,19.20
2015,05,16,16,01,19.20
2015,05,16,16,02,19.20
2015,05,16,16,03,19.10
2015,05,16,16,04,19.10
2015,05,16,16,05,19.00
2015,05,16,16,06,18.90
2015,05,16,16,07,18.90
2015,05,16,16,08,19.00
2015,05,16,16,09,19.00
2015,05,16,16,10,18.90
2015,05,16,16,11,18.80
2015,05,16,16,12,18.70
2015,05,16,16,13,18.70
2015,05,16,16,14,18.60
2015,05,16,16,15,18.60
2015,05,16,16,16,18.70
2015,05,16,16,17,18.70
2015,05,16,16,18,18.80
2015,05,16,16,19,18.80
2015,05,16,16,20,18.80
2015,05,16,16,21,18.80
2015,05,16,16,22,18.80
2015,05,16,16,23,18.80
2015,05,16,16,24,18.80
2015,05,16,16,25,18.80
2015,05,16,16,26,18.80
2015,05,16,16,27,18.90
2015,05,16,16,28,18.90
2015,05,16,16,29,18.90
2015,05,16,16,30,19.00
2015,05,16,16,31,19.00
2015,05,16,16,32,19.00
2015,05,16,16,33,19.10
2015,05,16,16,34,19.10
2015,05,16,16,35,19.20
2015,05,16,16,36,19.20
2015,05,16,16,37,19.10
2015,05,16,16,38,19.00
2015,05,16,16,39,18.90
2015,05,16,16,40,18.80
2015,05,16,16,41,18.80
2015,05,16,16,42,18.70
2015,05,16,16,43,18.70
2015,05,16,16,44,18.80
2015,05,16,16,45,18.80
2015,05,16,16,46,18.90
2015,05,16,16,47,18.80
2015,05,16,16,48,18.80
2015,05,16,16,49,18.80
2015,05,16,16,50,18.80
2015,05,16,16,51,18.80
2015,05,16,16,52,18.90
2015,05,16,16,53,18.90
2015,05,16,16,54,19.00
2015,05,16,16,55,19.00
2015,05,16,16,56,19.00
2015,05,16,16,57,19.00
2015,05,16,16,58,19.00
2015,05,16,16,59,19.00
2015,05,16,17,00,18.90
2015,05,16,17,01,18.90
2015,05,16,17,02,18.90
2015,05,16,17,03,18.90
2015,05,16,17,04,18.90
2015,05,16,17,05,18.90
2015,05,16,17,06,19.00
2015,05,16,17,07,19.10
2015,05,16,17,08,19.20
2015,05,16,17,09,19.20
2015,05,16,17,10,19.30
2015,05,16,17,11,19.40
2015,05,16,17,12,19.50
2015,05,16,17,13,19.50
2015,05,16,17,14,19.60
2015,05,16,17,15,19.60
2015,05,16,17,16,19.50
2015,05,16,17,17,19.50
2015,05,16,17,18,19.50
2015,05,16,17,19,19.40